Regional Weather Roundup
Issued by NWS

Home | Current Version | Previous Version | Text Only | Print | Product List | Glossary Off
Versions: 1 2 3 4 5 6 7 8 9 10 11 12 13 14 15 16 17 18 19 20 21 22 23 24 25 26 27 28 29 30 31 32 33 34 35 36 37 38 39 40 41 42 43 44 45 46 47 48 49 50

000
ASUS43 KLOT 271308
RWRIL

ILLINOIS REGIONAL WEATHER ROUNDUP
NATIONAL WEATHER SERVICE CHICAGO/ROMEOVILLE IL
800 AM CDT THU APR 27 2017

NOTE: "FAIR" INDICATES FEW OR NO CLOUDS BELOW 12,000 FEET WITH NO
SIGNIFICANT WEATHER AND/OR OBSTRUCTIONS TO VISIBILITY.

* THESE STATIONS ARE NOT UNDER NWS QUALITY CONTROL. THEY ALSO MAY NOT
  REPORT WEATHER SUCH AS PRECIPITATION OR FOG.

ILZ001-002-007-009-015-016-024-271400-
NORTHWEST ILLINOIS

CITY           SKY/WX    TMP DP  RH WIND       PRES   REMARKS
MOLINE         CLOUDY    41  36  82 W20G28    29.56R
STERLING*      LGT RAIN  39  38  96 W24G30    29.52R WCI  28
SAVANNA*       LGT RAIN  38  36  92 W12G24    29.52R WCI  30
$$

ILZ003-004-008-010-011-017-018-271400-
NORTH CENTRAL ILLINOIS

CITY           SKY/WX    TMP DP  RH WIND       PRES   REMARKS
ROCKFORD       LGT RAIN  44  40  85 W12       29.47R
FREEPORT*      DRIZZLE   38  37  93 W20G26    29.47R WCI  29
ROCHELLE*      LGT RAIN  42  40  95 W18G26    29.49R
DE KALB*       LGT RAIN  42  41  95 W17G28    29.46R
PERU*          CLOUDY    40  38  92 W23       29.54R
$$

ILZ005-006-012>014-019>023-271400-
NORTHEAST ILLINOIS

CITY           SKY/WX    TMP DP  RH WIND       PRES   REMARKS
CHICAGO-OHARE  LGT RAIN  48  45  89 W26G32    29.40R FOG
CHICAGO-MIDWAY CLOUDY    48  45  89 SW24G30   29.43R
AURORA         LGT RAIN  45  42  89 W21G31    29.48R FOG
LANSING*       CLOUDY    48  46  95 W22G31    29.46R
JOLIET*        CLOUDY    46  44  93 W15G22    29.50R
WAUKEGAN       LGT RAIN  47  46  97 VRB7G21   29.35R FOG
DUPAGE AIRPORT CLOUDY    45  45 100 W17G28    29.45R FOG
KANKAKEE*      CLOUDY    47  44  90 W23       29.53R
WHEELING       CLOUDY    48  48 100 W16G23    29.39R FOG
MORRIS*        CLOUDY    44  41  91 W21G26    29.51R
ROMEOVILLE*    CLOUDY    45  45 100 W21G30    29.48R FOG
$$

LMZ740>746-271400-
SOUTHERN LAKE MICHIGAN

STATION/POSITION SKY/WX   TEMP    WIND        PRES    VSBY  WAVE
                          AIR SEA DIR/SP/G                  HT/PER
                          (F)     (DEG/KT/KT) (MB)    (MI)  (FT/S)
SOUTHERN BUOY              49 42  160/ 17/ 21  992.2          2/ 3
HARRISON CRIB              53     240/ 22/ 26   N/A
BURNHAM HARBOR             48     230/ 21/ 29   N/A
CALUMET HARBOR             49     220/ 13/ 23  995.6R
BURNS HARBOR               54     220/ 23/ 31  996.3R
MICHIGAN CITY              57     190/ 29/ 33   N/A
MICHIGAN CITY 6N           55 49                N/A           5/ 3
ST. JOSEPH                 58 49  210/ 25/ 35  995.2          5/ 3
$$

ILZ025>027-034>036-040-047-049-050-058-095>099-271400-
WEST-CENTRAL ILLINOIS

CITY           SKY/WX    TMP DP  RH WIND       PRES   REMARKS
QUINCY         CLOUDY    42  39  89 W14G22    29.64R
GALESBURG*     LGT RAIN  39  37  93 W15       29.58R WCI  31
MACOMB*        CLOUDY    40  39  94 W15       29.63R
JACKSONVILLE*  CLOUDY    42  41  95 W8        29.64R FOG
PITTSFIELD*    CLOUDY    44  40  86 W9        29.66R
$$

ILZ028>032-037-038-041>044-048-051>054-059>061-271400-
CENTRAL ILLINOIS

CITY           SKY/WX    TMP DP  RH WIND       PRES   REMARKS
PONTIAC        CLOUDY    45  44  95 W20G25    29.56R
BLOOMINGTON    CLOUDY    43  40  89 W15G25    29.58R
DECATUR        CLOUDY    45  42  89 W14G25    29.62R
PEORIA         LGT RAIN  41  39  93 W12       29.60R
LACON*         DRIZZLE   41  38  91 W13G22    29.57R
LINCOLN*       CLOUDY    44  41  88 W7G20     29.61R
SPRINGFIELD    CLOUDY    46  42  86 W15       29.63R
TAYLORVILLE    CLOUDY    45  41  85 W16G23    29.64R
$$

ILZ033-039-045-046-055>057-062-063-271400-
EAST-CENTRAL ILLINOIS

CITY           SKY/WX    TMP DP  RH WIND       PRES   REMARKS
CHAMPAIGN      CLOUDY    46  41  82 W23G29    29.59R
RANTOUL*       CLOUDY    47  45  92 W16       29.58R
MATTOON        CLOUDY    47  42  83 W12G28    29.62R
PARIS*         CLOUDY    48  46  93 W17G25    29.62R
$$

ILZ079-100>102-271400-
SOUTHWEST ILLINOIS

CITY           SKY/WX    TMP DP  RH WIND       PRES   REMARKS
ALTON          CLOUDY    46  41  81 W15       29.68R
BELLEVILLE     CLOUDY    50  47  92 SW5       29.67R
CAHOKIA*       CLOUDY    48  43  82 W9        29.69R
$$

ILZ064>066-069>071-074>076-080>082-084>086-088>090-092>094-271400-
SOUTH-CENTRAL ILLINOIS

CITY           SKY/WX    TMP DP  RH WIND       PRES   REMARKS
CARBONDALE     CLOUDY    49  46  90 W8        29.71R
CAIRO*         CLOUDY    50  46  85 W8        29.74R
EFFINGHAM*     CLOUDY    47  46  96 W10       29.68R FOG
MARION         CLOUDY    50  50 100 W12       29.71R
MT. VERNON     CLOUDY    48  46  93 W8        29.69R
CENTRALIA*     CLOUDY    50  46  85 W13       29.67R
SALEM*         CLOUDY    50  45  82 W12       29.67R
METROPOLIS*    CLOUDY    51  47  89 W9        29.73R
$$

ILZ067-068-072-073-078-083-087-091-271400-
SOUTHEAST ILLINOIS

CITY           SKY/WX    TMP DP  RH WIND       PRES   REMARKS
LAWRENCEVILLE  PTSUNNY   52  47  83 W17G24    29.64R
FLORA*         CLOUDY    50  46  87 W10       29.67R
FAIRFIELD*     CLOUDY    51  46  83 W5        29.67R
HARRISBURG*    CLOUDY    50  48  94 W13       29.70R FOG
ROBINSON*      CLOUDY    50  47  88 W15       29.64R
CARMI*         CLOUDY    51  48  89 W9        29.67R
$$

ABBREVIATIONS USED IN REMARKS
   TC - TEMPERATURE IN CELSIUS
  WCI - WIND CHILL INDEX
   HX - HEAT INDEX
  VSB - VISIBILITY
$$





USA.gov is the U.S. government's official web portal to all federal, state and local government web resources and services.